SCP
0 0 0 0 0 0 0 0 0 0 0 0 0 0 0 0 0 0 0 0 0 0
0 0 0 0 0 0 0 0 0 0 0 0 0 0 0 0 0 0 0 0 0 0
0 0 0 0 0 0 0 0 0 0 0 0 0 0 0 0 0 0 0 0 0 0
0 0 0 0 0 0 0 0 0 0 0 0 0 0 0 0 0 0 0 0 0 0
0 0 0 0 0 0 0 0 0 0 0 0 0 0 0 0 0 0 0 0 0 0
0 0 0 0 0 0 0 0 0 0 0 0 0 0 0 0 0 0 0 0 0 0
0 0 0 0 0 0 0 0 0 0 0 0 0 0 0 0 0 0 0 0 0 0
0 0 0 0 0 0 0 0 0 0 0 0 0 0 0 0 0 0 0 0 0 0
0 0 0 0 0 0 0 0 0 0 0 0 0 0 0 0 0 0 0 0 0 0
0 0 0 0 0 0 0 0 0 0 0 0 0 0 0 0 0 0 0 0 0 0
0 0 0 0 0 0 0 0 0 0 0 0 0 0 0 0 0 0 0 0 0 0
0 0 0 0 0 0 0 0 0 0 0 0 0 0 0 0 0 0 0 0 0 0
0 -0 0 0 0 0 0 0 0 0 0 0 0 0 0 0 0 0 0 0 0 0
0 -0 0 0 0 0 0 0 0 0 0 0 0 0 0 0 0 0 0 0 0 0
Wind_Speed_500mb
58 59 60 59 62 64 68 71 73 74 76 78 79 79 84 80 89 80 98 94 89 97
52 54 53 53 55 57 59 59 61 66 71 73 77 78 83 76 83 88 87 85 95 97
47 49 48 48 50 50 52 55 57 60 61 63 64 68 72 79 79 81 83 85 91 90
39 41 42 42 42 45 48 50 54 56 58 62 64 65 72 77 75 79 86 81 87 86
31 35 37 40 42 45 47 49 51 54 58 61 59 63 69 73 72 79 85 77 81 86
30 34 37 40 42 45 47 49 51 55 57 56 57 61 66 73 74 74 76 79 81 81
38 43 47 48 49 53 55 55 57 59 60 60 60 64 66 73 77 74 77 78 75 78
38 45 50 55 59 61 62 64 64 66 66 68 70 70 69 70 75 81 79 79 77 77
41 43 45 50 56 62 67 70 73 75 74 76 77 75 70 74 76 80 85 83 82 81
43 46 47 48 53 59 64 68 74 79 80 83 83 78 75 77 82 84 86 89 88 89
53 54 53 55 57 60 64 70 73 77 80 82 84 81 82 80 87 90 92 93 94 91
53 54 55 56 60 62 66 72 77 79 80 83 85 81 82 89 94 96 98 97 96 93
52 53 53 53 55 57 62 69 72 77 80 82 85 83 83 92 99 104 101 97 97 95
49 47 49 55 57 63 67 67 69 73 75 79 81 82 82 91 95 102 102 99 97 92
Wind_Direction_500mb
255 252 256 259 257 255 252 252 253 250 250 251 251 250 251 250 247 255 246 244 247 244
259 263 266 264 263 257 253 251 251 250 250 249 248 249 248 247 250 252 248 248 250 246
264 268 269 267 261 257 254 253 255 256 255 250 244 245 246 247 248 249 249 250 249 244
265 269 269 264 259 256 256 257 258 259 257 253 255 246 246 248 248 252 252 248 248 245
282 272 267 265 263 260 259 259 259 256 257 257 253 250 246 249 252 251 250 250 249 247
309 297 294 287 280 271 268 264 259 259 261 260 257 251 253 255 255 255 253 254 250 245
320 315 308 299 290 283 279 272 268 266 264 259 256 252 256 254 251 253 253 253 249 246
310 308 309 306 302 296 289 283 278 273 268 262 258 256 258 257 256 254 252 250 248 243
311 300 297 297 299 297 293 290 285 279 273 269 263 260 260 260 258 256 253 250 247 241
315 307 297 292 291 291 292 290 287 283 279 274 269 264 260 262 258 255 253 251 248 242
318 313 308 298 292 289 290 288 287 284 280 276 272 266 260 259 259 256 254 251 247 242
324 319 312 309 304 297 291 289 288 286 283 278 275 271 264 259 256 255 253 249 246 240
330 323 317 314 311 307 297 291 288 285 283 280 276 272 267 262 257 254 251 245 243 241
325 323 324 318 316 312 304 294 289 288 288 286 282 278 271 265 258 254 250 245 240 235
Wind_Speed_850mb
58 59 60 59 62 64 68 71 73 74 76 78 79 79 84 80 89 80 98 94 89 97
52 54 53 53 55 57 59 59 61 66 71 73 77 78 83 76 83 88 87 85 95 97
47 49 48 48 50 50 52 55 57 60 61 63 64 68 72 79 79 81 83 85 91 90
39 41 42 42 42 45 48 50 54 56 58 62 64 65 72 77 75 79 86 81 87 86
31 35 37 40 42 45 47 49 51 54 58 61 59 63 69 73 72 79 85 77 81 86
30 34 37 40 42 45 47 49 51 55 57 56 57 61 66 73 74 74 76 79 81 81
38 43 47 48 49 53 55 55 57 59 60 60 60 64 66 73 77 74 77 78 75 78
38 45 50 55 59 61 62 64 64 66 66 68 70 70 69 70 75 81 79 79 77 77
41 43 45 50 56 62 67 70 73 75 74 76 77 75 70 74 76 80 85 83 82 81
43 46 47 48 53 59 64 68 74 79 80 83 83 78 75 77 82 84 86 89 88 89
53 54 53 55 57 60 64 70 73 77 80 82 84 81 82 80 87 90 92 93 94 91
53 54 55 56 60 62 66 72 77 79 80 83 85 81 82 89 94 96 98 97 96 93
52 53 53 53 55 57 62 69 72 77 80 82 85 83 83 92 99 104 101 97 97 95
49 47 49 55 57 63 67 67 69 73 75 79 81 82 82 91 95 102 102 99 97 92
Wind_Direction_850mb
255 252 256 259 257 255 252 252 253 250 250 251 251 250 251 250 247 255 246 244 247 244
259 263 266 264 263 257 253 251 251 250 250 249 248 249 248 247 250 252 248 248 250 246
264 268 269 267 261 257 254 253 255 256 255 250 244 245 246 247 248 249 249 250 249 244
265 269 269 264 259 256 256 257 258 259 257 253 255 246 246 248 248 252 252 248 248 245
282 272 267 265 263 260 259 259 259 256 257 257 253 250 246 249 252 251 250 250 249 247
309 297 294 287 280 271 268 264 259 259 261 260 257 251 253 255 255 255 253 254 250 245
320 315 308 299 290 283 279 272 268 266 264 259 256 252 256 254 251 253 253 253 249 246
310 308 309 306 302 296 289 283 278 273 268 262 258 256 258 257 256 254 252 250 248 243
311 300 297 297 299 297 293 290 285 279 273 269 263 260 260 260 258 256 253 250 247 241
315 307 297 292 291 291 292 290 287 283 279 274 269 264 260 262 258 255 253 251 248 242
318 313 308 298 292 289 290 288 287 284 280 276 272 266 260 259 259 256 254 251 247 242
324 319 312 309 304 297 291 289 288 286 283 278 275 271 264 259 256 255 253 249 246 240
330 323 317 314 311 307 297 291 288 285 283 280 276 272 267 262 257 254 251 245 243 241
325 323 324 318 316 312 304 294 289 288 288 286 282 278 271 265 258 254 250 245 240 235